Content
SEND FEEDBACK

Daily
Averages
Monthly
Summary
United States of America

CLAYHATCHEE, ALABAMA


Home > North America > United States > Alabama
Elevation: 299 feet     Latitude: 31 16N     Longitude: 085 43W

WEATHER
 
SELECT A DAY
Number of Records: 63,508;   Date Range: 2/10/98 - 9/16/14
 
SHARE

PRINT THIS DATA

[ ← Previous Day ]
WEATHER ALMANAC - JANUARY 23, 2013
[ Next Day → ]
[ °C ]   °F
Weather ElementAverageHighLow
Temperature47.3 °F62.1 °F (2:53 pm)30.9 °F (1:53 am)
Dewpoint35.6 °F45 °F (10:53 pm)27 °F (9:53 am)
Humidity68.1 %92 % (1:53 am)34 % (10:53 am)
Barometer30.34 in30.43 in (8:53 am)30.28 in (6:53 pm)
Wind Speed1.9 mph6.9 mph (2:53 pm)
Weather ElementAverage
Visibility8.7 mi
Wind DirectionENE (83 °)

Weather ElementTotal
Precipitation---
Heating Degree Days18.5 (Base 65)
Averaged from 23 records on January 23, 2013
WEATHER CONDITIONS BREAKOUT
WIND DIRECTION BREAKOUT
WEATHER BY HOUR - JANUARY 23, 2013
[ °C ]   °F
Local TimeTemperatureDewpointHumidityBarometerVisibilityWind DirectionWind SpeedGust SpeedPrecipitationEventsConditions
1:53 AM30.9 °F28.9 °F92 %30.33 in8.0 miCalmClear
2:53 AM30.9 °F28.0 °F89 %30.34 in7.0 miCalmClear
3:53 AM30.9 °F28.9 °F92 %30.35 in5.0 miCalmClear
4:53 AM30.9 °F28.0 °F89 %30.36 in5.0 miCalmClear
5:53 AM32.0 °F30.0 °F92 %30.38 in5.0 miCalmOvercast
6:53 AM34.0 °F32.0 °F92 %30.39 in5.0 miCalmOvercast
7:53 AM37.9 °F34.0 °F86 %30.40 in9.0 miCalmOvercast
8:53 AM46.0 °F33.1 °F61 %30.43 in10.0 miCalmScattered Clouds
9:53 AM51.1 °F27.0 °F39 %30.43 in10.0 miSouth (190°)4.6 mphClear
10:53 AM55.9 °F28.0 °F34 %30.40 in10.0 miVariable3.5 mphClear
11:53 AM57.9 °F32.0 °F37 %30.37 in10.0 miWest (280°)5.8 mphOvercast
12:53 PM59.0 °F34.0 °F39 %30.33 in10.0 miWNW (290°)4.6 mphOvercast
1:53 PM60.1 °F36.0 °F41 %30.31 in10.0 miWNW (300°)5.8 mphMostly Cloudy
2:53 PM62.1 °F37.9 °F41 %30.30 in10.0 miWNW (290°)6.9 mphPartly Cloudy
3:53 PM61.0 °F37.9 °F42 %30.30 in10.0 miWest (270°)6.9 mphOvercast
4:53 PM60.1 °F39.0 °F46 %30.30 in10.0 miCalmOvercast
5:53 PM53.1 °F42.1 °F66 %30.29 in10.0 miCalmClear
6:53 PM48.9 °F42.1 °F77 %30.28 in10.0 miCalmClear
7:53 PM48.0 °F42.1 °F80 %30.29 in10.0 miCalmClear
8:53 PM48.9 °F43.0 °F80 %30.30 in10.0 miCalmOvercast
9:53 PM50.0 °F44.1 °F80 %30.29 in9.0 miCalmClear
10:53 PM48.0 °F45.0 °F89 %30.28 in8.0 miCalmClear
11:53 PM50.0 °F45.0 °F83 %30.29 in9.0 miWNW (290°)4.6 mphClear
Hourly data recorded from KLOR, located miles away from Clayhatchee, Alabama







STORIES FROM OUR PARTNERS